User: anonymous   Login
Location: Unspecified
(0.0000°N, 0.0000°E)
Time: 00:10:05
(UTC+00:00)
Language:

YAOGAN 1 - Orbit

View from above orbital plane
View from above orbital plane
View from above satellite
View from above satellite

Ground track
Ground track

The orbit data is extracted from the following two-line orbital elements,

1 29092U 06015A   18112.58627300 +.00000076 +00000-0 +16021-4 0  9995
2 29092 097.9935 129.1214 0001438 092.8724 267.2654 14.82899362648118
Epoch (UTC): 22 April 2018 14:04:13
Eccentricity: 0.0001438
inclination: 97.9935°
perigee height: 619 km
apogee height: 621 km
right ascension of ascending node: 129.1214°
argument of perigee: 92.8724°
revolutions per day: 14.82899362
mean anomaly at epoch: 267.2654°
orbit number at epoch: 64811

The dashed part of the orbit path shows where the satellite is in the earth's shadow,  

DLR